Tracking 19817 objects as of 21-Aug-2019
HD Live streaming from Space Station
objects crossing your sky now

GLOBALSTAR M092

Track GLOBALSTAR M092 now!
10-day predictions
GLOBALSTAR M092 is classified as:


NORAD ID: 38043
Int'l Code: 2011-080D
Perigee: 1,420.0 km
Apogee: 1,421.5 km
Inclination: 52.0 °
Period: 114.1 minutes
Semi major axis: 7791 km
RCS: 5.0785 m2 (large)
Launch date: December 28, 2011
Source: Globalstar (GLOB)
Launch site: TYURATAM MISSILE AND SPACE COMPLEX (TTMTR)
aabbcc
Your satellite tracking list
Your tracking list is empty




NASA's NSSDC Master Catalog

Two Line Element Set (TLE):
1 38043U 11080D   19232.06079020 -.00000089  00000-0  82956-4 0  9991
2 38043  52.0084  93.6264 0000986  64.9913  88.6007 12.62265774353400
Source of the keplerian elements: AFSPC